This demonstration page uses our WeatherBlox Daily Observations layout. Learn more.

Left ArrowRight Arrow

Hourly Observations for July 11, 2015

Temp ( °F °C ) Dew Point ( °F °C ) Humidity (%) Winds ( mph kmh ) Pressure ( in mb ) Visibility ( mi km ) Precip ( " mm )
12:15 am 00:15 Cloudy 77 25 70 21 79 79 N N/A 30.06 1018 10 16 N/A
12:35 am 00:35 Cloudy 77 25 70 21 79 79 N N/A 30.06 1018 10 16 N/A
12:55 am 00:55 Cloudy with Light Rain 77 25 68 20 74 74 N 6 9 30.06 1018 10 16 N/A
1:15 am 01:15 Cloudy with Light Rain 77 25 68 20 74 74 NNE 9 15 30.06 1018 10 16 N/A
1:35 am 01:35 Cloudy 75 24 70 21 83 83 NNW 5 7 30.06 1018 10 16 N/A
1:55 am 01:55 Cloudy 73 23 70 21 89 89 WNW 10 17 30.06 1018 10 16 N/A
2:15 am 02:15 Cloudy with Light Rain 73 23 70 21 89 89 W 5 7 30.06 1018 10 16 N/A
2:35 am 02:35 Cloudy with Drizzle 73 23 72 22 94 94 SSW 3 6 30.06 1018 10 16 N/A
2:55 am 02:55 Cloudy 73 23 70 21 89 89 N N/A 30.06 1018 10 16 N/A
3:15 am 03:15 Cloudy 72 22 72 22 100 100 N N/A 30.06 1018 10 16 N/A
3:35 am 03:35 Cloudy 72 22 72 22 100 100 SW 3 6 30.06 1018 10 16 N/A
3:55 am 03:55 Cloudy 72 22 70 21 94 94 SSW 6 9 30.06 1018 10 16 N/A
4:15 am 04:15 Cloudy 72 22 70 21 94 94 WNW 8 13 30.06 1018 10 16 N/A
4:35 am 04:35 Cloudy 73 23 68 20 83 83 N 6 9 30.06 1018 10 16 N/A
4:55 am 04:55 Cloudy with Light Rain 72 22 70 21 94 94 N 5 7 30.06 1018 10 16 N/A
5:15 am 05:15 Cloudy 72 22 70 21 94 94 WNW 5 7 30.06 1018 10 16 N/A
5:35 am 05:35 Cloudy with Rain 72 22 68 20 88 88 N 5 7 30.09 1019 7 11 N/A
5:55 am 05:55 Cloudy with Light Rain 70 21 70 21 100 100 WNW 7 11 30.09 1019 7 11 N/A
6:15 am 06:15 Cloudy with Light Rain 70 21 70 21 100 100 WNW 6 9 30.09 1019 10 16 N/A
6:35 am 06:35 Mostly Cloudy with Light Rain 70 21 70 21 100 100 N N/A 30.09 1019 5 8 N/A
6:55 am 06:55 Mostly Cloudy with Light Rain 70 21 70 21 100 100 NW 7 11 30.09 1019 7 11 N/A
7:15 am 07:15 Mostly Cloudy with Rain 70 21 70 21 100 100 N N/A 30.09 1019 4 6 N/A
7:35 am 07:35 Cloudy with Rain 70 21 70 21 100 100 WNW 3 6 30.12 1020 3 5 N/A
7:55 am 07:55 Cloudy with Light Rain 70 21 70 21 100 100 NW 7 11 30.12 1020 5 8 N/A
8:15 am 08:15 Cloudy with Light Rain 72 22 72 22 100 100 NW 7 11 30.12 1020 7 11 N/A
8:35 am 08:35 Cloudy 72 22 72 22 100 100 N 6 9 30.12 1020 10 16 N/A
8:55 am 08:55 Cloudy 72 22 70 21 94 94 NNE 6 9 30.12 1020 10 16 N/A
9:15 am 09:15 Cloudy 73 23 70 21 89 89 NNE 6 9 30.12 1020 10 16 N/A
9:35 am 09:35 Cloudy 73 23 70 21 89 89 NNW 6 9 30.12 1020 10 16 N/A
9:55 am 09:55 Partly Cloudy 75 24 72 22 89 89 NNE 3 6 30.12 1020 10 16 N/A
10:15 am 10:15 Partly Cloudy 77 25 70 21 79 79 NE 6 9 30.12 1020 10 16 N/A
10:35 am 10:35 Partly Cloudy 79 26 70 21 74 74 NNE 5 7 30.12 1020 10 16 N/A
10:55 am 10:55 Partly Cloudy 79 26 68 20 70 70 NE 6 9 30.12 1020 10 16 N/A
11:15 am 11:15 Partly Cloudy 81 27 68 20 66 66 NNE 8 13 30.12 1020 10 16 N/A
11:35 am 11:35 Mostly Cloudy 81 27 66 19 62 62 NE 5 7 30.12 1020 10 16 N/A
11:55 am 11:55 Partly Cloudy 81 27 66 19 62 62 NNE 7 11 30.12 1020 10 16 N/A
12:15 pm 12:15 Mostly Cloudy 81 27 68 20 66 66 NE 3 6 30.12 1020 10 16 N/A
12:35 pm 12:35 Mostly Cloudy 81 27 66 19 62 62 NNE 6 9 30.12 1020 10 16 N/A
12:55 pm 12:55 Cloudy 81 27 64 18 58 58 NNE 5 7 30.12 1020 10 16 N/A
1:15 pm 13:15 Mostly Cloudy 81 27 68 20 66 66 NNW 7 11 30.12 1020 10 16 N/A
1:35 pm 13:35 Partly Cloudy 82 28 66 19 58 58 NNE 5 7 30.12 1020 10 16 N/A
1:55 pm 13:55 Partly Cloudy 82 28 64 18 55 55 NE 6 9 30.12 1020 10 16 N/A
2:15 pm 14:15 Mostly Cloudy 82 28 63 17 51 51 N 7 11 30.12 1020 10 16 N/A
2:35 pm 14:35 Mostly Cloudy 82 28 61 16 48 48 NNW 9 15 30.12 1020 10 16 N/A
2:55 pm 14:55 Partly Cloudy 84 29 61 16 45 45 NE 5 7 30.12 1020 10 16 N/A
3:15 pm 15:15 Sunny 86 30 61 16 43 43 NNE 7 11 30.09 1019 10 16 N/A
3:35 pm 15:35 Partly Cloudy 82 28 63 17 51 51 NE 7 11 30.09 1019 10 16 N/A
3:55 pm 15:55 Partly Cloudy 84 29 63 17 48 48 N 7 11 30.09 1019 10 16 N/A
4:15 pm 16:15 Sunny 84 29 63 17 48 48 N 3 6 30.09 1019 10 16 N/A
4:35 pm 16:35 Partly Cloudy 84 29 63 17 48 48 N 8 13 30.09 1019 10 16 N/A
4:55 pm 16:55 Partly Cloudy 84 29 63 17 48 48 NNW 9 15 30.09 1019 10 16 N/A
5:15 pm 17:15 Mostly Cloudy 82 28 63 17 51 51 N 7 11 30.09 1019 10 16 N/A
5:35 pm 17:35 Partly Cloudy 84 29 61 16 45 45 N 7 11 30.09 1019 10 16 N/A
5:55 pm 17:55 Sunny 84 29 61 16 45 45 N 8 13 30.09 1019 10 16 N/A
6:15 pm 18:15 Mostly Cloudy 84 29 61 16 45 45 NW 12 19 30.09 1019 10 16 N/A
6:35 pm 18:35 Mostly Cloudy 84 29 59 15 43 43 NNW 7 11 30.09 1019 10 16 N/A
6:55 pm 18:55 Partly Cloudy 82 28 59 15 45 45 N 9 15 30.09 1019 10 16 N/A
7:15 pm 19:15 Mostly Cloudy 82 28 61 16 48 48 N N/A 30.09 1019 10 16 N/A
7:35 pm 19:35 Partly Cloudy 82 28 59 15 45 45 ENE 3 6 30.09 1019 10 16 N/A
7:55 pm 19:55 Sunny 81 27 59 15 48 48 NE 5 7 30.09 1019 10 16 N/A
8:15 pm 20:15 Sunny 81 27 61 16 51 51 NE 3 6 30.09 1019 10 16 N/A
8:35 pm 20:35 Sunny 77 25 63 17 61 61 N N/A 30.09 1019 10 16 N/A
8:55 pm 20:55 Clear 73 23 63 17 69 69 W 6 9 30.09 1019 10 16 N/A
9:15 pm 21:15 Clear 72 22 64 18 78 78 W 8 13 30.09 1019 10 16 N/A
9:35 pm 21:35 Clear 72 22 64 18 78 78 WNW 10 17 30.12 1020 10 16 N/A
9:55 pm 21:55 Clear 70 21 64 18 83 83 WNW 8 13 30.12 1020 10 16 N/A
10:15 pm 22:15 Clear 70 21 66 19 88 88 NW 7 11 30.12 1020 10 16 N/A
10:35 pm 22:35 Clear 70 21 66 19 88 88 WNW 7 11 30.12 1020 10 16 N/A
10:55 pm 22:55 Clear 68 20 64 18 88 88 WNW 6 9 30.12 1020 10 16 N/A
11:15 pm 23:15 Clear 68 20 64 18 88 88 N N/A 30.12 1020 10 16 N/A
11:35 pm 23:35 Clear 68 20 66 19 94 94 N N/A 30.09 1019 10 16 N/A
11:55 pm 23:55 Clear 66 19 64 18 94 94 N N/A 30.09 1019 10 16 N/A

Powered by AerisWeather